This demonstration page uses our WeatherBlox Daily Observations layout. Learn more.

Left ArrowRight Arrow

53.62937, 11.41316

Hourly Observations for June 20, 2017

Temp ( °F °C ) Dew Point ( °F °C ) Humidity (%) Winds ( mph kmh ) Pressure ( in mb ) Visibility ( mi km ) Precip ( " mm )
6:20 am 06:20 Mostly Sunny 59 15 59 15 100 100 W 1 2 29.97 1015 7 11 N/A
6:50 am 06:50 Mostly Sunny 63 17 63 17 100 100 VRB 2 4 29.97 1015 7 11 N/A
7:20 am 07:20 Mostly Sunny 66 19 64 18 94 94 VRB 2 4 30.00 1016 7 11 N/A
7:50 am 07:50 Mostly Sunny 68 20 64 18 88 88 NNW 5 7 30.00 1016 7 11 N/A
8:20 am 08:20 Mostly Sunny 70 21 63 17 78 78 N 5 7 30.00 1016 7 11 N/A
8:50 am 08:50 Mostly Sunny 72 22 63 17 73 73 NNW 7 11 30.00 1016 7 11 N/A
9:20 am 09:20 Mostly Sunny 73 23 63 17 69 69 NW 9 15 30.00 1016 7 11 N/A
9:50 am 09:50 Mostly Sunny 73 23 57 14 57 57 NNW 8 13 30.00 1016 7 11 N/A
10:20 am 10:20 Mostly Sunny 72 22 57 14 61 61 NW 9 15 30.03 1017 7 11 N/A
10:50 am 10:50 Mostly Sunny 73 23 59 15 61 61 NNW 9 15 30.03 1017 7 11 N/A
11:20 am 11:20 Mostly Sunny 73 23 59 15 61 61 NNW 10 17 30.03 1017 7 11 N/A
11:50 am 11:50 Mostly Sunny 72 22 59 15 65 65 NNW 10 17 30.03 1017 7 11 N/A
12:20 pm 12:20 Mostly Sunny 73 23 59 15 61 61 NNW 9 15 30.03 1017 7 11 N/A
12:50 pm 12:50 Mostly Sunny 73 23 59 15 61 61 NNW 8 13 30.03 1017 7 11 N/A
1:20 pm 13:20 Mostly Sunny 73 23 57 14 57 57 NNW 10 17 30.03 1017 7 11 N/A
1:50 pm 13:50 Mostly Sunny 73 23 57 14 57 57 NW 10 17 30.03 1017 7 11 N/A
2:20 pm 14:20 Mostly Sunny 72 22 55 13 57 57 NW 10 17 30.03 1017 7 11 N/A
2:50 pm 14:50 Mostly Sunny 73 23 55 13 53 53 NNW 10 17 30.03 1017 7 11 N/A
3:20 pm 15:20 Mostly Sunny 73 23 55 13 53 53 NNW 8 13 30.03 1017 7 11 N/A
3:50 pm 15:50 Mostly Sunny 73 23 55 13 53 53 NW 10 17 30.03 1017 7 11 N/A
4:20 pm 16:20 Mostly Sunny 73 23 57 14 57 57 NW 6 9 30.03 1017 7 11 N/A
4:50 pm 16:50 Mostly Sunny 73 23 57 14 57 57 NNW 7 11 30.03 1017 7 11 N/A
5:20 pm 17:20 Mostly Sunny 72 22 55 13 57 57 NNW 9 15 30.03 1017 7 11 N/A
5:50 pm 17:50 Mostly Sunny 72 22 55 13 57 57 N 9 15 30.03 1017 7 11 N/A

Powered by AerisWeather